Torna al catalogo

SL-14 DEB

AttivoPO
NORAD 45270·DEBRIS·🇷🇺 Russia

Lanciato Aug 15, 1991 da Plesetsk Cosmodrome

Loading…

Prossimi Passaggi (prossime 24 ore)

TLE

AggiornatoSource: Space-Track

Epoca: Sep 14, 2026, 04:02 UTC

1 45270U 91056G   26257.16821276  .00000109  00000-0  23022-3 0  9996
2 45270  82.5643  64.1690 0032522 176.1118 184.0267 13.22465614317815

Traccia SL-14 DEB in tempo reale con AllMySat

Download on the App Store